Regional Weather Roundup
Issued by NWS

Home | Current Version | Previous Version | Text Only | Print | Product List | Glossary On
Versions: 1 2 3 4 5 6 7 8 9 10 11 12 13 14 15 16 17 18 19 20 21 22 23 24 25 26 27
000
ASUS42 KTBW 300116
RWRFL
FLORIDA REGIONAL WEATHER ROUNDUP
NATIONAL WEATHER SERVICE TAMPA BAY RUSKIN FL
900 PM EDT MON AUG 29 2016

NOTE: "FAIR" INDICATES FEW OR NO CLOUDS BELOW 12,000 FEET WITH NO
SIGNIFICANT WEATHER AND/OR OBSTRUCTIONS TO VISIBILITY.

FLZ001>010-012>015-112-114-115-300200-
PANHANDLE FLORIDA

CITY           SKY/WX    TMP DP  RH WIND       PRES   REMARKS
PENSACOLA      CLOUDY    86  69  56 NE6       29.94R
PENSACOLA NAS  MOCLDY    82  75  79 CALM      29.93R
MILTON NAS     PTCLDY    78  72  81 NE3       29.95
CRESTVIEW      CLEAR     80  70  71 NE3       29.97R
DUKE FIELD     PTCLDY    81  70  69 NE3       29.94R
VALPARAISO     PTCLDY    87  70  57 NE6       29.94R
MARY ESTHER    CLEAR     84  71  65 NE5       29.93R
PANAMA CITY    FAIR      81  77  88 CALM      29.94R
TYNDALL AFB    PTCLDY    83  76  80 CALM      29.94R
APALACHICOLA   PTCLDY    82  78  88 N9        29.93R

STATION/POSITION SKY/WX   TEMP    WIND        PRES    WAVE   SWELL
                          AIR SEA DIR/SP/G            HT/PER HT/PER
                          (F)     (DEG/KT/KT) (MB)    (FT/S) (FT/S)
30.1N   87.6W              86 86   90/  6/  8 1013.4R   3/ 7   3/ 7
29.2N   88.2W              85 86   70/ 16/ 17 1012.6S
28.8N   86.0W              85 85   80/ 12/ 16 1012.8R   4/ 6   2/ 7
PANAMA CITY BEAC           86 87              1013.8
TOWER C                    83     110/ 15/ 16 1014.2R
28.5N   84.5W              83 86   90/ 16/ 17 1012.1F   3/ 5   2/14

$$
FLZ011-016>038-118-127-128-134-139-239-300200-
NORTH FLORIDA

CITY           SKY/WX    TMP DP  RH WIND       PRES   REMARKS
MARIANNA       PTCLDY    84  71  65 NE7       29.96R
TALLAHASSEE    MOCLDY    85  73  67 E9        29.97R
PERRY          PTCLDY    79  74  84 CALM      29.98S
CROSS CITY     PTCLDY    81  73  78 E7        29.96S
LAKE CITY      FAIR      79  75  89 E5        29.99F
GAINESVILLE    PTCLDY    77  74  90 NE5       29.97S
WILLISTON      FAIR      77  73  88 CALM      29.97S
PALATKA        MOCLDY    75  57  53 CALM      29.98R
MAYPORT NAS    PTCLDY    82  75  79 E10       29.99S
JACKSONVILLE   MOCLDY    81  77  88 E13       30.00R
JAX NAS        MOCLDY    83  77  82 NE8       29.99S
FERNANDINA BEA MOCLDY    86  77  74 E8        29.99S HX  97
ST AUGUSTINE   MOCLDY    82  75  79 NE10      29.98

STATION/POSITION SKY/WX   TEMP    WIND        PRES    WAVE   SWELL
                          AIR SEA DIR/SP/G            HT/PER HT/PER
                          (F)     (DEG/KT/KT) (MB)    (FT/S) (FT/S)
SHELL POINT                84     110/ 13/ 23 1012.8
KEATON BEACH               79      70/  7/  8 1014.2F
CEDAR KEY                  78      60/ 10/ 12 1014.2F
FERNANDINA                 83 86              1015.7
30.7N   81.3W                 85                N/A     3/14   2/14
MAYPORT                    82 85              1015.9
31.4N   80.9W              83 85   70/ 12/ 14 1015.9R   3/13   2/13
ST AUGUSTINE               82 84   60/ 12/ 13 1015.8R

$$
FLZ040-043>046-052-053-057-058-063-144-300200-
INTERIOR CENTRAL FLORIDA

CITY           SKY/WX    TMP DP  RH WIND       PRES   REMARKS
OCALA          CLEAR     75  72  88 NE5       29.96R
THE VILLAGES     N/A     77  77 100 MISG      29.86S
LEESBURG       LGT RAIN  76  74  93 NE5       29.96S
SANFORD        CLOUDY    76  74  93 E6        29.95S
ORLANDO EXEC   MOCLDY    76  73  91 E9        29.94F
ORLANDO INTL   LGT RAIN  77  73  87 E8        29.94F
KISSIMMEE      LGT RAIN  76  73  91 SE7       29.94F
WINTER HAVEN   LGT RAIN  76  72  87 E9        29.94F FOG
LAKELAND       PTCLDY    81  75  83 E9        29.93S
BARTOW         FAIR      73  73 100 E7        29.93F
OKEECHOBEE     CLOUDY    73  72  94 CALM      29.94S

$$
FLZ041-047-054-059-064-141-147-300200-
EAST CENTRAL FLORIDA

CITY           SKY/WX    TMP DP  RH WIND       PRES   REMARKS
DAYTONA BEACH  MOCLDY    81  74  79 E7        29.96S
DELAND         PTCLDY    77  73  88 CALM      29.96S
NEW SMYRNA BEA PTCLDY    81  75  83 SE12      29.96
JFK SPACE CTR  CLOUDY    76  73  92 CALM      29.93F
TITUSVILLE     RAIN      75  73  94 SE6       29.94F
CAPE CANAVERAL CLOUDY    77  75  93 SE6       29.93F
PATRICK AFB    CLOUDY    79  76  89 E10       29.93F
MELBOURNE      CLOUDY    81  75  82 E13       29.94F
VERO BEACH     CLOUDY    77  75  93 N5        29.95R
FT PIERCE      LGT RAIN  79  76  90 E7        29.94R
STUART         PTCLDY    82  75  78 SE3       29.95R

STATION/POSITION SKY/WX   TEMP    WIND        PRES    WAVE   SWELL
                          AIR SEA DIR/SP/G            HT/PER HT/PER
                          (F)     (DEG/KT/KT) (MB)    (FT/S) (FT/S)
28.5N   80.2W              81 83  140/ 12/ 16 1014.2R
TRIDENT PIER               76 86              1014.3
28.4N   80.5W                 85                N/A     3/ 4   2/13
27.5N   80.2W                 84                N/A     3/13   2/13

$$
FLZ050-056-061-142-242-148-248-149-249-151-251-155-255-
160-260-300200-
WEST CENTRAL FLORIDA

CITY           SKY/WX    TMP DP  RH WIND       PRES   REMARKS
CRYSTAL RIVER  FAIR      75  73  94 E7        29.94R
INVERNESS      FAIR      73  73 100 NE5       29.95R
BROOKSVILLE    PTCLDY    77  71  82 E14       29.93S
CLEARWATER AIR FAIR      79  75  89 E7        29.90R
ST PETE CLEARW PTCLDY    82  75  79 E16G23    29.90R
TAMPA INTL     MOCLDY    81  75  82 E8        29.91S
TAMPA EXEC     PTCLDY    81  73  78 E7        29.91F
PLANT CITY     PTCLDY    81  77  89 E8        29.94F
MACDILL AFB    CLEAR     80  79  98 E15       29.91R
PETER O KNIGHT CLEAR     81  77  89 E8        29.91R
ST PETERSBURG  CLOUDY    83  78  85 E20       29.90R
SARASOTA       CLOUDY    81  74  79 E9        29.90R
VENICE         FAIR      77  77 100 E9        29.91R

STATION/POSITION SKY/WX   TEMP    WIND        PRES    WAVE   SWELL
                          AIR SEA DIR/SP/G            HT/PER HT/PER
                          (F)     (DEG/KT/KT) (MB)    (FT/S) (FT/S)
27.3N   84.2W                 86                N/A     4/ 6
CLEARWATER BEACH           81 86              1012.5
MIDDLE TAMPA BAY                              1012.6
VENICE                     77 85   70/  7/ 11 1012.5R

$$
FLZ066-069-070-075>078-162-262-165-265-300200-
SOUTHWEST FLORIDA AND KEYS

CITY           SKY/WX    TMP DP  RH WIND       PRES   REMARKS
PUNTA GORDA    CLOUDY    76  75  97 E8        29.93R
FT MYERS       MOCLDY    79  76  90 NE6       29.89R
SOUTHWEST INTL CLOUDY    79  73  82 E10       29.90R
NAPLES         PTCLDY    80  74  81 E10       29.89R
MARATHON       LGT RAIN  81  77  88 SE9       29.88R
KEY WEST NAS   CLOUDY    84  74  71 S10       29.87R
KEY WEST INTL  CLOUDY    82  77  84 S10       29.87R

STATION/POSITION SKY/WX   TEMP    WIND        PRES    WAVE   SWELL
                          AIR SEA DIR/SP/G            HT/PER HT/PER
                          (F)     (DEG/KT/KT) (MB)    (FT/S) (FT/S)
NAPLES                        86              1011.4
26.0N   85.6W              85 86   60/ 21/ 25 1009.7R   7/ 7
DRY TORTUGAS               83     140/ 18/ 20 1010.6R
SAND KEY                   78     200/  7/  8 1011.8R
LONG KEY                   81 85  170/ 11/ 14 1012.5R

$$
FLZ067-068-071>074-168-172>174-300200-
SOUTHEAST FLORIDA

CITY           SKY/WX    TMP DP  RH WIND       PRES   REMARKS
W PALM BEACH   CLOUDY    82  75  79 SE14      29.94R
BOCA RATON     PTCLDY    81  77  89 SE12      29.92R
FT LAUDER-EXEC PTCLDY    81  72  74 E12       29.92R
FT LAUDERDALE  MOCLDY    82  73  74 SE16      29.91R
POMPANO BEACH  MOCLDY    81  74  79 SE10      29.93R
OPA LOCKA      CLOUDY    81  74  79 SE12      29.92R
MIAMI          CLOUDY    80  76  87 E10       29.92R
WEST KENDALL   CLOUDY    79  76  90 E9        29.91R
HOMESTEAD      LGT RAIN  79  75  89 SE10G21   29.91R FOG

STATION/POSITION SKY/WX   TEMP    WIND        PRES    WAVE   SWELL
                          AIR SEA DIR/SP/G            HT/PER HT/PER
                          (F)     (DEG/KT/KT) (MB)    (FT/S) (FT/S)
PORT EVERGLADES            82     130/  9/ 16 1012.3R
VIRGINIA KEY               81 88              1012.9
LAKE WORTH                 82 86  140/ 15/ 18 1012.9
FOWEY ROCKS                81 85  140/ 20/ 23 1013.7R
SETTLEMENT POINT           81     130/ 11/ 13 1014.7R

$$





USA.gov is the U.S. government's official web portal to all federal, state and local government web resources and services.